Regional Weather Roundup
Issued by NWS

Home | Current Version | Previous Version | Text Only | Print | Product List | Glossary Off
Versions: 1 2 3 4 5 6 7 8 9 10 11 12 13 14 15 16 17 18 19 20 21 22 23 24 25 26 27 28 29 30 31 32 33 34 35 36 37 38 39 40 41 42 43 44 45 46 47 48 49 50

000
ASUS43 KLOT 050112
RWRIL

ILLINOIS REGIONAL WEATHER ROUNDUP
NATIONAL WEATHER SERVICE CHICAGO/ROMEOVILLE IL
800 PM CDT SAT JUL 04 2015

NOTE: "FAIR" INDICATES FEW OR NO CLOUDS BELOW 12,000 FEET WITH NO
SIGNIFICANT WEATHER AND/OR OBSTRUCTIONS TO VISIBILITY.

* THESE STATIONS ARE NOT UNDER NWS QUALITY CONTROL. THEY ALSO MAY NOT
  REPORT WEATHER SUCH AS PRECIPITATION OR FOG.

ILZ001-002-007-009-015-016-024-050200-
NORTHWEST ILLINOIS

CITY           SKY/WX    TMP DP  RH WIND       PRES   REMARKS
MOLINE         CLEAR     76  63  64 CALM      29.98R
STERLING*      CLEAR     72  63  73 CALM      29.99R
SAVANNA*       CLEAR     76  63  62 CALM      29.97S
$$

ILZ003-004-008-010-011-017-018-050200-
NORTH CENTRAL ILLINOIS

CITY           SKY/WX    TMP DP  RH WIND       PRES   REMARKS
ROCKFORD       PTCLDY    76  61  59 W3        30.00S
FREEPORT*      CLEAR     73  63  69 CALM      30.01S
ROCHELLE*      CLEAR     74  62  67 CALM      30.00R
DE KALB*       CLEAR     72  59  64 NW3       30.01R
PERU*          CLEAR     76  58  54 CALM      29.99S
$$

ILZ005-006-012>014-019>023-050200-
NORTHEAST ILLINOIS

CITY           SKY/WX    TMP DP  RH WIND       PRES   REMARKS
CHICAGO-OHARE  CLEAR     75  57  53 E8        29.98R
CHICAGO-MIDWAY CLEAR     76  58  53 E8        29.99R
AURORA         CLEAR     77  59  53 CALM      29.99S
LANSING*       CLEAR     75  57  53 CALM      29.99R
JOLIET*        CLEAR     78  59  52 CALM      29.99R
WAUKEGAN       CLEAR     70  55  59 CALM      29.98S
DUPAGE AIRPORT CLEAR     75  60  59 SW3       29.98S
KANKAKEE*      CLEAR     76  63  63 CALM      30.00R
WHEELING       CLEAR     74  56  53 E3        30.00R
MORRIS*        CLEAR     75  61  61 CALM      29.98R
ROMEOVILLE*    CLEAR     74  58  58 W3        29.99S
NORTHERLY ISL    N/A     68  58  70 CALM        N/A
$$

LMZ740>746-050200-
SOUTHERN LAKE MICHIGAN

STATION/POSITION SKY/WX   TEMP    WIND        PRES    VSBY  WAVE
                          AIR SEA DIR/SP/G                  HT/PER
                          (F)     (DEG/KT/KT) (MB)    (MI)  (FT/S)
HARRISON CRIB              67     100/  5/  7   N/A
BURNHAM HARBOR             68      CALM  /  3   N/A
CALUMET HARBOR             69      70/  6/  8   N/A
BURNS HARBOR               70      80/  8/ 10 1015.9S
MICHIGAN CITY              70      40/ 10/ 10   N/A
MICHIGAN CITY 6N           67 65   90/  6/  6   N/A           1
ST. JOSEPH                 67 65                N/A           0
$$

ILZ025>027-034>036-040-047-049-050-058-095>099-050200-
WEST-CENTRAL ILLINOIS

CITY           SKY/WX    TMP DP  RH WIND       PRES   REMARKS
QUINCY         CLEAR     78  62  57 CALM      29.98R HX  80
GALESBURG*     CLEAR     72  66  81 CALM      29.99S
MACOMB*        CLEAR     74  68  80 CALM      30.01R
JACKSONVILLE*  CLEAR     77  70  78 CALM      29.99R
PITTSFIELD*    CLEAR     76  68  76 CALM      30.00S
$$

ILZ028>032-037-038-041>044-048-051>054-059>061-050200-
CENTRAL ILLINOIS

CITY           SKY/WX    TMP DP  RH WIND       PRES   REMARKS
PONTIAC        CLEAR     75  66  72 CALM      30.00S
BLOOMINGTON    CLEAR     76  64  66 NE5       30.02R
DECATUR        CLEAR     74  65  73 SE3       30.01R
PEORIA         CLEAR     78  62  57 CALM      29.99R HX  80
LACON*         CLEAR     74  65  74 CALM      29.98S
LINCOLN*       CLEAR     76  64  66 CALM      30.00R
SPRINGFIELD    CLEAR     78  67  68 NE3       29.99R HX  80
TAYLORVILLE    MOCLDY    72  64  78 CALM      30.01R
$$

ILZ033-039-045-046-055>057-062-063-050200-
EAST-CENTRAL ILLINOIS

CITY           SKY/WX    TMP DP  RH WIND       PRES   REMARKS
CHAMPAIGN      PTCLDY    73  65  75 CALM      30.01R
DANVILLE*      CLEAR     70  67  91 CALM      29.99R
RANTOUL*       CLEAR     75  66  75 CALM      30.01R
MATTOON        PTCLDY    72  65  78 CALM      30.00R
PARIS*         PTCLDY    73  66  78 CALM      30.02R
$$

ILZ079-100>102-050200-
SOUTHWEST ILLINOIS

CITY           SKY/WX    TMP DP  RH WIND       PRES   REMARKS
BELLEVILLE     PTCLDY    77  66  69 NE2       29.98R
CAHOKIA*       PTCLDY    77  64  64 E6        29.98R
SPARTA*        MOCLDY    77  64  65 NE3       30.00R
$$

ILZ064>066-069>071-074>076-080>082-084>086-088>090-092>094-050200-
SOUTH-CENTRAL ILLINOIS

CITY           SKY/WX    TMP DP  RH WIND       PRES   REMARKS
CARBONDALE     MOCLDY    76  69  79 CALM      29.98R
CAIRO*         CLOUDY    76  70  81 CALM      29.97S
EFFINGHAM*     PTCLDY    73  63  69 CALM      30.01S
MARION         CLOUDY    75  72  88 CALM      29.99R
MT. VERNON     MOCLDY    75  64  69 CALM      30.00R
CENTRALIA*     MOCLDY    75  65  72 CALM      30.00R
SALEM*         MOCLDY    77  66  70 CALM      30.00R
$$

ILZ067-068-072-073-078-083-087-091-050200-
SOUTHEAST ILLINOIS

CITY           SKY/WX    TMP DP  RH WIND       PRES   REMARKS
LAWRENCEVILLE  MOCLDY    76  69  79 NE3       29.99R
FLORA*         MOCLDY    76  65  70 CALM      30.00R
FAIRFIELD*     CLOUDY    74  70  85 CALM      29.98R
HARRISBURG*    CLOUDY    75  72  89 CALM      29.99S
ROBINSON*      MOCLDY    76  67  75 CALM      30.01R
CARMI*         CLOUDY    76  66  70 CALM      29.98R
$$

ABBREVIATIONS USED IN REMARKS
   TC - TEMPERATURE IN CELSIUS
  WCI - WIND CHILL INDEX
   HX - HEAT INDEX
  VSB - VISIBILITY
$$




USA.gov is the U.S. government's official web portal to all federal, state and local government web resources and services.